Back to catalog

SL-12 DEB

LostHEO
NORAD 44557·DEBRIS·🇷🇺 Russia

Launched Sep 2, 2010 from Baikonur Cosmodrome

Loading…

Next Passes (next 24 hours)

TLE

StaleSource: Space-Track

Epoch: Oct 6, 2019, 23:01 UTC

1 44557U 10041AC  19279.95902845  .00005331  00000-0  16838-1 0  9990
2 44557  65.5351 276.0163 5699146  34.8539 351.8248  4.25641506  1723

Track SL-12 DEB in real time with AllMySat

Download on the App Store